Hourly Data Report for February 17, 2020

All times are specified in Local Standard Time (LST). Add 1 hour to adjust for Daylight Saving Time where and when it is observed.

YARMOUTH A
NOVA SCOTIA
Current Station Operator: NAVCAN

43°49'37.000" N
66°05'17.000" W
42.90 m
8206495
71603
YQI

Download Data

Hourly Data (February 2020)
Hourly Data Report for February 17, 2020
TIME Temp Definition
°C
Dew Point Definition
°C
Rel Hum Definition
%
Wind Dir Definition
10's deg

Wind Spd Definition
km/h
Visibility Definition
km
Stn Press Definition
kPa
Hmdx Definition


Wind Chill Definition


Weather Definition


00:00 2.0 0.3 89 22 8 24.1 101.25     LegendNANA
01:00 2.1 0.5 89 23 11 24.1 101.26     LegendNANA
02:00 1.9 0.6 91 28 10 24.1 101.23     Cloudy
03:00 1.6 0.1 90 26 9 24.1 101.25     LegendNANA
04:00 0.9 -0.9 87 26 7 24.1 101.20     LegendNANA
05:00 0.9 -1.5 84 28 14 24.1 101.22     Mainly Clear
06:00 1.5 -1.5 80 31 11 24.1 101.27     LegendNANA
07:00 1.4 -0.8 85 30 7 24.1 101.31     LegendNANA
08:00 1.3 -0.7 87 36 2 24.1 101.35     Mostly Cloudy
09:00 2.1 -0.1 86 36 2 24.1 101.42     LegendNANA
10:00 4.1 -0.7 71 28 11 24.1 101.46     LegendNANA
11:00 4.8 -0.4 69 27 19 24.1 101.46     Mainly Clear
12:00 4.7 -0.1 71 29 25 24.1 101.46     LegendNANA
13:00 5.1 0.7 73 30 22 24.1 101.43     LegendNANA
14:00 5.1 0.7 73 29 25 24.1 101.42     Mainly Clear
15:00 4.3 -1.6 65 31 23 24.1 101.47     LegendNANA
16:00 3.5 -2.9 63 32 28 24.1 101.56     LegendNANA
17:00 2.5 -3.2 66 31 24 24.1 101.65     Clear
18:00 1.2 -4.8 64 32 20 24.1 101.77     LegendNANA
19:00 0.6 -7.0 57 34 20 24.1 101.92     LegendNANA
20:00 -0.4 -8.8 53 35 21 24.1 102.07   -6 Clear
21:00 -1.2 -10.1 51 34 25 24.1 102.24   -7 LegendNANA
22:00 -1.9 -7.8 64 36 27 24.1 102.35   -9 LegendNANA
23:00 -2.9 -9.1 63 1 26 24.1 102.43   -10 Mostly Cloudy

Notes on Data Quality.

Legend

  • E = Estimated
  • M = Missing
  • NA = Not Available*
  • [empty] = Indicates an unobserved value
Date modified: